Regional Weather Roundup
Issued by NWS

Home | Current Version | Previous Version | Text Only | Print | Product List | Glossary On
Versions: 1 2 3 4 5 6 7 8 9 10 11 12 13 14 15 16 17 18 19 20 21 22 23 24 25 26 27 28 29 30 31 32 33 34 35 36 37 38 39 40 41 42 43 44 45 46 47 48 49 50
000
ASUS42 KKEY 170310
RWRKEY

FLORIDA REGIONAL WEATHER ROUNDUP FOR THE FLORIDA KEYS
NATIONAL WEATHER SERVICE KEY WEST FLORIDA
1100 PM EDT TUE SEP 16 2014

...SOUTH FLORIDA AND THE KEYS...

CITY           SKY/WX    TMP DP  RH WIND       PRES   REMARKS
FORT MYERS     CLEAR     76  69  79 NE3       30.03S
SW REGIONAL AP CLEAR     74  68  81 NE3       30.04S
NAPLES         CLOUDY    78  71  79 SE7       30.03S
MIAMI          CLOUDY    79  74  84 W5        30.03S
WEST KENDALL   CLOUDY    78  73  84 CALM      30.03F
HOMESTEAD      MOCLDY    78  73  83 CALM      30.03S
MARATHON       CLOUDY    81  77  88 NE5       30.04R
BOCA CHICA NAS PTCLDY    81  75  82 NE3       30.04R
KEY WEST INTL  PTCLDY    82  75  79 E5        30.04R

...INTERNATIONAL WEATHER...

CITY           SKY/WX    TMP DP  RH WIND       PRES   REMARKS
NASSAU BAHAMAS PTCLDY    81  77  89 CALM      30.03
CANCUN MEXICO  CLEAR     81  77  89 E3        30.02R
COZUMEL MEXICO PTCLDY    73  73 100 CALM      30.01R

ADJACENT COASTAL WATERS...

STATION/POSITION TIME  SKY/WX   TEMP    WIND        PRES    WAVE
                                AIR SEA DIR/SP/G            HT/PER
                 (UTC)          (F)     (DEG/KT/KT) (MB)    (FT/S)
PULASKI SHOAL LI 0300            84     110/  6/  8 1016.8S
SAND KEY         0300            80     190/  9/ 10 1017.2R
SOMBRERO KEY     0300            81      40/  8/  9 1017.7S
LONG KEY         0159            81 86   20/  9/ 10 1017.8R
MOLASSES REEF    0300            81 86  340/  5/  6 1017.0S
FOWEY ROCKS      0300            81 85  260/  9/ 10 1017.1S
Buoy 42080       NOT AVBL

$$



USA.gov is the U.S. government's official web portal to all federal, state and local government web resources and services.